Regional Weather Roundup
Issued by NWS

Home | Current Version | Previous Version | Graphics & Text | Print | Product List | Glossary On
Versions: 1 2 3 4 5 6 7 8 9 10 11 12 13 14 15 16 17 18 19 20 21 22 23 24 25 26 27 28 29 30 31 32 33 34 35 36 37 38 39 40 41 42 43 44 45 46 47 48 49 50
746
ASUS45 KABQ 140310
RWRNM
NEW MEXICO REGIONAL WEATHER ROUNDUP
NATIONAL WEATHER SERVICE ALBUQUERQUE NM
800 PM MST SAT FEB 13 2016

NOTE: "FAIR" MEANS FEW OR NO CLOUDS BELOW 12,000 FEET AGL WITH NO
       SIGNIFICANT WEATHER OR OBSTRUCTIONS TO VISION.

      THIS PRODUCT IS RELEASED AS TWO VERSIONS.  ONE VERSION NEAR
      THE TOP OF THE HOUR CONTAINING PRELIMINARY DATA FROM ALBUQUERQUE
      AND OTHER STATIONS.  A FINAL VERSION WITH ADDITIONAL DATA IS
      ISSUED ABOUT 10 MINUTES AFTER THE HOUR.

NMZ501-503-504-510>518-140400-
NORTHWEST PLATEAU/NORTHCENTRAL MOUNTAINS

CITY           SKY/WX    TMP DP  RH WIND       PRES   REMARKS
FARMINGTON     FAIR      47  23  38 CALM      30.16R
LOS ALAMOS     FAIR      53  11  18 N8        30.19F
SANTA FE       FAIR      47  14  26 N10       30.13R
TAOS           FAIR      37  21  52 NE5       30.18R WCI  34
ANGEL FIRE     FAIR      40  14  34 NW10G18   30.18S WCI  34

$$
NMZ402-403-502-505>509-140400-
WESTCENTRAL MOUNTAINS/SOUTHWEST MOUNTAINS

CITY           SKY/WX    TMP DP  RH WIND       PRES   REMARKS
GALLUP         FAIR      41  17  38 E5        30.21S
GRANTS         FAIR      42   7  23 NW9       30.21S
SILVER CITY      N/A     46   9  21 NW8       30.16S

$$
NMZ407-409-411-412-140400-
SOUTHERN DESERTS

CITY           SKY/WX    TMP DP  RH WIND       PRES   REMARKS
LORDSBURG      FAIR      52  14  22 W6        30.10R
DEMING         FAIR      56   9  15 N8        30.09R
LAS CRUCES     FAIR      51   9  18 SW6       30.10R
HOLLOMAN AFB   FAIR      55  10  16 SE7       30.05S
ALAMOGORDO     FAIR      54  18  24 SE10      30.07S
T OR C         FAIR      56   6  13 W10       30.08R

$$
NMZ519>523-140400-
CENTRAL VALLEYS/CENTRAL HIGHLANDS

CITY           SKY/WX    TMP DP  RH WIND       PRES   REMARKS
ALBUQUERQUE    FAIR      57  14  18 NW7       30.11S
MORIARTY ARPT  FAIR      42  15  33 CALM      30.14S
CLINES CORNERS FAIR      41  20  43 W12       30.13R
BELEN          FAIR      52   5  15 N14       30.11F
SOCORRO        FAIR      53   6  14 W6        30.10S

$$
NMZ524>526-539-540-140400-
SOUTHCENTRAL MOUNTAINS

CITY           SKY/WX    TMP DP  RH WIND       PRES   REMARKS
RUIDOSO          N/A     48   7  18 NW6       30.18S

$$
NMZ527>531-140400-
NORTHEAST HIGHLANDS/NORTHEAST PLAINS

CITY           SKY/WX    TMP DP  RH WIND       PRES   REMARKS
LAS VEGAS      FAIR      52   8  17 N6        30.11R
RATON          FAIR      55   8  15 NW18G26   30.03R
CLAYTON        FAIR      56  11  16 W13       29.93R

$$
NMZ532>537-140400-
EASTCENTRAL PLAINS

CITY           SKY/WX    TMP DP  RH WIND       PRES   REMARKS
TUCUMCARI      FAIR      53  18  25 W12       29.94S
CANNON AFB     FAIR      49  17  28 W12       30.00S
CLOVIS AIRPORT FAIR      48  18  29 W13       30.01S

$$
NMZ028-029-538-140400-
SOUTHEAST PLAINS

CITY           SKY/WX    TMP DP  RH WIND       PRES   REMARKS
ROSWELL        FAIR      49  14  24 W8        30.01R
ARTESIA        FAIR      55  19  24 SW14      30.02S
CARLSBAD       FAIR      53  29  39 S3        30.01S
HOBBS          FAIR      54  21  28 S8        30.04F


$$




USA.gov is the U.S. government's official web portal to all federal, state and local government web resources and services.